Regional Weather Roundup
Issued by NWS Upton, NY

Current Version | Previous Version | Text Only | Print | Product List | Glossary On
Versions: 1 2 3 4 5 6 7 8 9 10 11 12 13 14 15 16 17 18 19 20 21 22 23 24 25 26 27 28 29 30 31 32 33 34 35 36 37 38 39 40 41 42 43 44 45 46 47 48 49 50
834
ASUS41 KOKX 281608
RWROKX

REGIONAL WEATHER ROUNDUP
NATIONAL WEATHER SERVICE NEW YORK NY
1200 PM EDT TUE MAR 28 2017

NOTE: "FAIR" INDICATES FEW OR NO CLOUDS BELOW 12,000 FEET WITH NO
SIGNIFICANT WEATHER AND/OR OBSTRUCTIONS TO VISIBILITY.

NYZ071-072-176-178-NJZ106-104-281700-
NEW YORK CITY METRO AREA

CITY           SKY/WX    TMP DP  RH WIND       PRES   REMARKS
Central Park   LGT RAIN  43  42  97 VRB7      29.94F FOG
Wall St Helipt CLOUDY    45  43  93 NE16      29.91F
LaGuardia APRT LGT RAIN  43  40  89 NE14      29.93F VSB 1/2
Kennedy INTL   LGT RAIN  46  45  96 E18       29.92F FOG
Breezy Point     N/A     43 N/A N/A E17G24      N/A
Newark/Liberty LGT RAIN  46  45  96 N9        29.92F VSB 1/2
Teterboro      DRIZZLE   45  43  93 NE9       29.91F FOG
$$

NYZ177-179-078>081-281700-
LONG ISLAND NEW YORK

CITY           SKY/WX    TMP DP  RH WIND       PRES   REMARKS
Jones Beach      N/A     43 N/A N/A E10         N/A
Matinecock PT    N/A     37 N/A N/A E16         N/A  WCI  28
Farmingdale    HVY RAIN  46  45  96 E9        29.97S VSB 3/4
MacArthur/ISP  TSTM      45  45 100 S6        30.01R VSB 1
Shirley        RAIN      44  43  96 SE5       29.99R FOG
Westhampton    CLOUDY    42  39  89 E13G21    29.97F
East Hampton   CLOUDY    42  38  86 E15G23    29.96F
Montauk        NOT AVBL
$$

NYZ052-065-067-281700-
HUDSON VALLEY

CITY           SKY/WX    TMP DP  RH WIND       PRES   REMARKS
White Plains   LGT RAIN  42  40  92 E8        29.94F VSB 1
Newburgh       CLOUDY    45  45 100 SE6       29.97R FOG
Montgomery     CLOUDY    46  44  93 CALM      29.93F FOG
Poughkeepsie   CLOUDY    44  42  93 S3        29.96R
Albany         LGT RAIN  50  43  77 S5        29.94F
$$

NJZ001-105-106-008-010-013-015-019>022-104-281700-
NEW JERSEY

CITY           SKY/WX    TMP DP  RH WIND       PRES   REMARKS
Newark/Liberty LGT RAIN  46  45  96 N9        29.92F VSB 1/2
Teterboro      DRIZZLE   45  43  93 NE9       29.91F FOG
Caldwell       CLOUDY    44  42  93 NE9       29.92F
Somerville     CLOUDY    48  47  96 VRB3      29.90R FOG
Linden         DRIZZLE   46  44  94 E10       29.93R
Sussex         CLOUDY    47  47 100 N5        29.91F
Andover          N/A     47  45  93 CALM      29.90F
Trenton        RAIN      46  45  96 W7        29.94R FOG
Millville      LGT RAIN  58  58 100 NE8       29.87F
Atlantic City  CLOUDY    55  52  88 CALM      29.91R
Wrightstown    CLOUDY    49  49  98 VRB3      29.89R
Toms River     LGT RAIN  48  47  96 NE5       29.92R
Belmar         RAIN      44  43  96 NE9       29.91F
$$

PAZ047>061-062-071-281700-
EASTERN PENNSYLVANIA

CITY           SKY/WX    TMP DP  RH WIND       PRES   REMARKS
Philadelphia   LGT RAIN  51  49  92 E5        29.91F
Allentown      CLOUDY    49  45  86 SE6       29.93R FOG
Scranton       CLOUDY    55  51  86 SE5       29.88S
$$

CTZ002-004>006-009-010-012-RIZ004-006-007-MAZ004-011-015-281700-
SOUTHERN NEW ENGLAND
 IN CT

CITY           SKY/WX    TMP DP  RH WIND       PRES   REMARKS
Bradley INTL   CLOUDY    44  40  85 NE7       29.98F
Hartford       CLOUDY    44  41  89 N3        29.98F FOG
Danbury        CLOUDY    43  43 100 S7        29.99R FOG
Wtrbury/Oxford FOG       39  36  87 CALM      29.98R VSB 1/4
Bridgeport     HVY RAIN  41  39  93 E7        30.00R FOG
Meriden        CLOUDY    44  41  89 E6        29.98S
New Haven      CLOUDY    41  38  89 SE10      29.99R
Chester        NOT AVBL
Groton         CLOUDY    44  40  85 E13       29.96F
Wilimantic     CLOUDY    46  42  86 NE3       29.99F

 IN RI

CITY           SKY/WX    TMP DP  RH WIND       PRES   REMARKS
Providence     CLOUDY    41  37  86 E6        30.01F
Block Island   CLOUDY    40  39  97 NE14      29.98F WCI  32
Westerly       CLOUDY    43  40  89 E12       29.98F
 IN MA

CITY           SKY/WX    TMP DP  RH WIND       PRES   REMARKS
Boston         CLOUDY    39  37  92 E8        30.03F WCI  33
Worcester      FOG       36  35  96 E7        29.97F VSB<1/4 WCI  30
Westfield      CLOUDY    41  41 100 N3        29.98F FOG
Provincetown   CLOUDY    43  39  86 E8        30.04S
Nantucket      CLOUDY    42  40  92 E13       29.98F
$$

ANZ330-335-338-340-345-350-353-355-281700-
COASTAL MARINE OBSERVATIONS


STATION/POSITION TIME  SKY/WX   TEMP    WIND        PRES    VSBY  WAVE
                                AIR SEA DIR/SP/G                  HT/PER
                 (UTC)          (F)     (DEG/KT/KT) (MB)    (MI)  (FT/S)
NY HARB ENTRANCE 1450            42 42  310/ 10/ 14 1015.3          3/ 6
20 S FIRE ISLAND 1450            44 42  120/ 14/ 16 1012.9          4/ 4
GREAT SOUTH BAY  NOT AVBL
23 SSW MONTAUK P 1450            41 42              1014.8          4/ 8
15 E BARNEGAT LI 1500               44                N/A           4/ 7
HUDSON CANYON    1450            47 44  130/  6/  6 1014.0          3/ 7
KINGS POINT      1542            41 39              1013.9
EXECUTION ROCKS  NOT AVBL
CENTRAL LI SOUND 1445            40      80/ 16/ 19   N/A           1/ 2
EASTERN LI SOUND NOT AVBL
ROBBINS REEF     1542            43      60/ 17/ 19 1012.4
$$


>>>>>>>>>>>>>>>>>>>>>>>>>>>> KEY <<<<<<<<<<<<<<<<<<<<<<<<<<<
>                                                          <
>     SKY/WX - Sky Condition/Present Weather               <
>     TMP    - Temperature in Fahrenheit                   <
>     DP     - Dew Point in Fahrenheit                     <
>     RH     - Relative Humidity in Percent                <
>     WIND   - Direction (from) and Speed in MPH           <
>     PRES   - Mean Sea Level Pressure (inches of Hg)      <
>     WCI    - Wind Chill Index                            <
>     VSB    - VISIBILITY IN MILES                         <
>     HX     - HEAT INDEX                                  <
>     TC     - TEMPERATURE IN CELSIUS                      <
>     VRB    - VARIABLE WIND DIRECTION                     <
>                                                          <
>>>>>>>>>>>>>>>>>>>>>>>>>>>> KEY <<<<<<<<<<<<<<<<<<<<<<<<<<<




USA.gov is the U.S. government's official web portal to all federal, state and local government web resources and services.